Location: AstroGeek's Observatory
(41.9520°N, 70.9880°W)
Time: 03:29:56
(UTC-05:00)

ISS - All Passes

Search period start: 23 January 2017 00:00
Search period end: 02 February 2017 00:00
Orbit: 399 x 410 km, 51.6° (Epoch: 23 January)

Date Brightness Start Highest point End Pass type
(mag) Time Alt. Az. Time Alt. Az. Time Alt. Az.
23 Jan - 00:51:57 10° NNW 00:54:04 16° N 00:56:10 10° NE night (unlit)
23 Jan - 02:28:06 10° NW 02:31:12 39° NNE 02:34:17 10° E night (unlit)
23 Jan - 04:04:47 10° WNW 04:07:34 26° SW 04:10:20 10° SSE night (unlit)
23 Jan - 20:44:12 10° SW 20:47:27 74° SE 20:50:42 10° ENE night (unlit)
23 Jan - 22:21:33 10° WNW 22:24:12 22° NNW 22:26:52 10° NE night (unlit)
23 Jan - 23:59:34 10° NW 00:01:33 15° N 00:03:31 10° NE night (unlit)
24 Jan - 01:36:00 10° NW 01:38:50 26° NNE 01:41:39 10° E night (unlit)
24 Jan - 03:12:18 10° WNW 03:15:28 50° SW 03:18:36 10° SE night (unlit)
24 Jan - 19:52:13 10° SSW 19:55:17 37° SE 19:58:20 10° ENE night (unlit)
24 Jan - 21:28:50 10° W 21:31:47 31° NNW 21:34:45 10° NE night (unlit)
24 Jan - 23:07:00 10° NW 23:09:01 15° N 23:11:02 10° NE night (unlit)
25 Jan - 00:43:53 10° NW 00:46:24 20° NNE 00:48:54 10° ENE night (unlit)
25 Jan - 02:20:00 10° NW 02:23:16 84° NE 02:26:30 10° ESE night (unlit)
25 Jan - 03:58:13 10° WSW 03:59:16 11° SW 04:00:19 10° SSW night (unlit)
25 Jan - 19:00:42 10° S 19:03:11 20° SE 19:05:39 10° E visible
25 Jan - 20:36:15 10° WSW 20:39:26 49° NNW 20:42:37 10° NE night (unlit)
25 Jan - 22:14:15 10° NW 22:16:29 17° N 22:18:43 10° NNE night (unlit)
25 Jan - 23:51:41 10° NNW 23:53:53 17° N 23:56:06 10° NE night (unlit)
26 Jan - 01:27:49 10° NW 01:30:58 47° NNE 01:34:06 10° ESE night (unlit)
26 Jan - 03:04:42 10° W 03:07:14 21° SW 03:09:45 10° S night (unlit)
26 Jan - 18:10:20 10° SE 18:11:08 11° SE 18:11:56 10° ESE visible
26 Jan - 19:43:52 10° SW 19:47:08 88° NW 19:50:24 10° NE visible
26 Jan - 21:21:26 10° WNW 21:23:58 21° NNW 21:26:32 10° NE night (unlit)
26 Jan - 22:59:21 10° NW 23:01:21 15° N 23:03:21 10° NE night (unlit)
27 Jan - 00:35:40 10° NW 00:38:35 30° NNE 00:41:30 10° E night (unlit)
27 Jan - 02:12:03 10° WNW 02:15:07 39° SW 02:18:10 10° SSE night (unlit)
27 Jan - 18:51:45 10° SW 18:54:54 48° SE 18:58:04 10° ENE visible
27 Jan - 20:28:38 10° W 20:31:30 27° NNW 20:34:23 10° NE night (unlit)
27 Jan - 22:06:48 10° NW 22:08:46 15° N 22:10:45 10° NE night (unlit)
27 Jan - 23:43:30 10° NW 23:46:07 22° NNE 23:48:45 10° ENE night (unlit)
28 Jan - 01:19:39 10° WNW 01:22:54 79° SW 01:26:08 10° SE night (unlit)
28 Jan - 18:00:00 10° SSW 18:02:45 25° SE 18:05:29 10° ENE visible
28 Jan - 19:35:58 10° W 19:39:05 41° NNW 19:42:13 10° NE visible
28 Jan - 21:14:03 10° NW 21:16:12 16° N 21:18:21 10° NNE night (unlit)
28 Jan - 22:51:17 10° NNW 22:53:36 18° NNE 22:55:55 10° ENE night (unlit)
29 Jan - 00:27:23 10° NW 00:30:36 57° NNE 00:33:48 10° ESE night (unlit)
29 Jan - 02:04:35 10° W 02:06:47 17° SW 02:08:58 10° S night (unlit)
29 Jan - 17:08:56 10° SSE 17:10:38 14° SE 17:12:21 10° E daylight
29 Jan - 18:43:28 10° WSW 18:46:43 71° NNW 18:49:59 10° NE visible
29 Jan - 20:21:12 10° WNW 20:23:38 19° NNW 20:26:05 10° NE visible
29 Jan - 21:58:58 10° NNW 22:01:02 15° N 22:03:06 10° NE night (unlit)
29 Jan - 23:35:11 10° NW 23:38:13 34° NNE 23:41:14 10° E night (unlit)
30 Jan - 01:11:44 10° WNW 01:14:39 31° SW 01:17:34 10° SSE night (unlit)
30 Jan - 17:51:12 10° SW 17:54:26 61° SE 17:57:40 10° ENE visible
30 Jan - 19:28:21 10° WNW 19:31:07 25° NNW 19:33:53 10° NE visible
30 Jan - 21:06:27 10° NW 21:08:25 15° N 21:10:24 10° NE night (unlit)
30 Jan - 22:43:00 10° NW 22:45:44 24° NNE 22:48:28 10° ENE night (unlit)
31 Jan - 00:19:13 10° WNW 00:22:26 62° SW 00:25:38 10° SE night (unlit)
31 Jan - 16:59:16 10° SSW 17:02:12 31° SE 17:05:08 10° ENE daylight
31 Jan - 18:35:35 10° W 18:38:38 35° NNW 18:41:40 10° NE visible
31 Jan - 20:13:43 10° NW 20:15:48 16° N 20:17:53 10° NNE visible
31 Jan - 21:50:47 10° NW 21:53:12 19° NNE 21:55:37 10° ENE night (unlit)
31 Jan - 23:26:52 10° NW 23:30:07 70° NNE 23:33:21 10° ESE night (unlit)
01 Feb - 01:04:29 10° W 01:06:12 14° SW 01:07:55 10° SSW night (unlit)
01 Feb - 16:07:50 10° S 16:10:02 17° SE 16:12:14 10° E daylight
01 Feb - 17:42:59 10° WSW 17:46:13 58° NNW 17:49:27 10° NE visible
01 Feb - 19:20:51 10° WNW 19:23:12 18° NNW 19:25:31 10° NNE visible
01 Feb - 20:58:27 10° NNW 21:00:35 16° N 21:02:44 10° NE night (unlit)
01 Feb - 22:34:36 10° NW 22:37:43 40° NNE 22:40:49 10° E night (unlit)
